Miscellaneous Local Product
Issued by NWS Hastings, NE

Home | Current Version | Previous Version | Text Only | Print | Product List | Glossary On
Versions: 1 2 3 4 5 6 7 8 9 10 11 12 13 14 15 16 17 18 19 20 21 22 23 24 25 26 27 28 29 30 31 32 33 34 35 36 37 38 39 40 41 42 43 44 45 46 47 48 49 50
173
AXUS43 KGID 010402
MISGRI

GID CWA HOURLY WEATHER ROUNDUP
NATIONAL WEATHER SERVICE HASTINGS NE
1100 PM CDT SUN APR 30 2017

NOTE: "FAIR" INDICATES FEW OR NO CLOUDS BELOW 12,000 FEET WITH NO
SIGNIFICANT WEATHER AND/OR OBSTRUCTIONS TO VISIBILITY.

...SOUTH CENTRAL NEBRASKA...

CITY           SKY/WX    TMP DP  RH WIND       PRES   REMARKS
GRAND ISLAND   LGT RAIN  33  33 100 N22       29.60F FOG     WCI  21
HASTINGS       LGT SNOW  34  32  92 N23G33    29.60S FOG     WCI  22
KEARNEY        CLOUDY    34  30  86 N23G29    29.64F WCI  22
ORD            LGT SNOW  33  31  92 N14       29.67S VSB 1   WCI  23
YORK           CLOUDY    36  36 100 N16G23    29.55S WCI  26
AURORA         DRIZZLE   34  34 100 N20G28    29.58S WCI  22
LEXINGTON      MIX PCPN  34  32  93 N15       29.70S WCI  24
HOLDREGE       LGT RAIN  33  32  94 N22G28    29.66S WCI  21
HEBRON         DRIZZLE   36  36  99 N14G23    29.52F WCI  27

...NEBRASKA PANHANDLE...

CITY           SKY/WX    TMP DP  RH WIND       PRES   REMARKS
CHADRON        CLOUDY    43  27  53 N3        29.85S
ALLIANCE       CLOUDY    37  26  64 N8        29.83R WCI  31
SCOTTSBLUFF    CLOUDY    40  29  64 N8        29.85R WCI  34
SIDNEY         CLOUDY    38  26  62 N8        29.83R WCI  32

...WESTERN AND NORTH CENTRAL NEBRASKA...

CITY           SKY/WX    TMP DP  RH WIND       PRES   REMARKS
VALENTINE      CLOUDY    46  17  31 N14       29.76F
AINSWORTH      CLOUDY    39  30  70 NE5       29.74F
ONEILL         LGT SNOW  33  32  94 N10       29.67F WCI  25
BROKEN BOW     LGT SNOW  35  33  92 N32G46    29.66F FOG     WCI  21
IMPERIAL       CLOUDY    44  23  43 N15       29.76S
NORTH PLATTE   CLOUDY    45  24  43 N14       29.72R
MCCOOK         CLOUDY    35  31  85 NW10      29.72S WCI  27

...EASTERN NEBRASKA...

CITY           SKY/WX    TMP DP  RH WIND       PRES   REMARKS
NORFOLK        LGT SNOW  33  31  92 N14       29.59F FOG     WCI  23
SO SIOUX CITY  LGT RAIN  38  37  97 NE20G26   29.57F WCI  28
TEKAMAH        CLOUDY    41  38  89 N20       29.52F
COLUMBUS       CLOUDY    36  30  80 N17G25    29.56F WCI  25
ALBION         FLURRIES  35  32  90 N16       29.61F WCI  25
OMAHA EPPLEY   CLOUDY    42  38  85 N15       29.47F
OFFUTT AFB     CLOUDY    43  40  89 N8        29.45F
MILLARD        CLOUDY    44  41  92 N6        29.48F FOG
LINCOLN        CLOUDY    41  40  96 N16       29.49F
NEBRASKA CITY  RAIN      43  43 100 NE8       29.45S
BEATRICE       DRIZZLE   42  41  98 N13       29.47S
FALLS CITY     LGT RAIN  45  42  89 S7        29.44F

...NORTHERN KANSAS...

CITY           SKY/WX    TMP DP  RH WIND       PRES   REMARKS
GOODLAND       CLOUDY    37  28  70 NW14      29.77R WCI  28
HILL CITY      LGT SNOW  34  33  96 NW26G37   29.71R FOG     WCI  21
PHILLIPSBURG   CLOUDY    37  37 100 NW20G26   29.65F WCI  27
HAYS           LGT RAIN  35  33  92 NW24G30   29.65R WCI  23
RUSSELL        MIX PCPN  36  34  92 NW23G32   29.61R WCI  24
CONCORDIA      LGT RAIN  37  36  96 NW20G26   29.51R WCI  27
SALINA         LGT RAIN  40  37  89 NW26G38   29.52R WCI  29
TOPEKA         CLOUDY    45  44  97 S6        29.45S



USA.gov is the U.S. government's official web portal to all federal, state and local government web resources and services.